Regional Weather Roundup
Issued by NWS

Home | Current Version | Previous Version | Graphics & Text | Print | Product List | Glossary On
Versions: 1 2 3 4 5 6 7 8 9 10 11 12 13 14 15 16 17 18 19 20 21 22 23 24 25 26 27 28 29 30 31 32 33 34 35 36 37 38 39 40 41 42 43 44 45 46 47 48 49 50
000
ASUS44 KMEG 021310
RWRTN
TENNESSEE HOURLY STATE WEATHER ROUNDUP
NATIONAL WEATHER SERVICE MEMPHIS TN
800 AM CDT THU OCT 02 2014

TNZ002-004-019-021-049-052-054-088>092-021400-
WEST TENNESSEE

CITY           SKY/WX    TMP DP  RH WIND       PRES   REMARKS
MEMPHIS INTL   CLOUDY    74  68  81 S9        29.96R
NWS MEMPHIS      N/A     73 N/A N/A MISG        N/A
JACKSON        SUNNY     71  64  78 SE7       29.98R
DYERSBURG      MOSUNNY   70  55  60 S5        29.96S
UNION CITY     PTSUNNY   68  63  83 S5        29.96R
PARIS          SUNNY     66  59  77 S7        30.00R
HUNTINGDON     SUNNY     66  60  81 SE6       29.99
LEXINGTON      SUNNY     64  63  94 CALM      30.00R
SAVANNAH       SUNNY     70  66  88 SE7       30.01R
$$

TNZ008-025-027-028-033-062-065-066-021400-
NORTH MIDDLE TENNESSEE

CITY           SKY/WX    TMP DP  RH WIND       PRES   REMARKS
NASHVILLE      PTSUNNY   68  61  78 S6        30.05R
CLARKSVILLE    CLOUDY    67  61  81 SE5       30.01R
LEBANON        MOSUNNY   63  59  87 CALM      30.03S
SMYRNA         MOSUNNY   66  61  84 S5        30.06R
MURFREESBORO   SUNNY     64  58  81 CALM      30.05R
COOKEVILLE     SUNNY     64  61  88 CALM      30.08R
LIVINGSTON     SUNNY     68  56  65 SW3       30.09R
GALLATIN       MOSUNNY   64  62  93 CALM      30.06R
CROSSVILLE     SUNNY     68  58  70 S3        30.13R
$$

TNZ061-075-076-078-094-096-097-021400-
SOUTH MIDDLE TENNESSEE

CITY           SKY/WX    TMP DP  RH WIND       PRES   REMARKS
LEWISBURG      CLOUDY    64  60  87 SE6       30.05R
FAYETTEVILLE   MOSUNNY   66  61  82 S6        30.08R
TULLAHOMA      SUNNY     64  59  82 CALM      30.09R
WINCHESTER     MOSUNNY   66  61  82 SE6       30.09R
MCMINNVILLE    SUNNY     63  63 100 CALM      30.09R
COLUMBIA       SUNNY     68  68 100 CALM      30.03R
SHELBYVILLE    CLOUDY    70  63  78 SE5       30.07S
$$

TNZ017-018-042-046-047-021400-
NORTHEAST TENNESSEE

CITY           SKY/WX    TMP DP  RH WIND       PRES   REMARKS
TRI CITIES     MOSUNNY   58  53  84 CALM      30.16R
ELIZABETHTON   SUNNY     57  54  88 E5        30.16R
$$

TNZ012-013-036-069-073-074-021400-
CENTRAL EAST TENNESSEE

CITY           SKY/WX    TMP DP  RH WIND       PRES   REMARKS
KNOXVILLE      MOSUNNY   59  56  89 NE3       30.11R
OAK RIDGE      FOG       57  56  96 E3        30.14R VSB 3/4
GATLINBURG     SUNNY     55  54  94 CALM      30.13R
MORRISTOWN     MOSUNNY   59  55  88 E5        30.15R
$$

TNZ083-085-099-021400-
SOUTHEAST TENNESSEE

CITY           SKY/WX    TMP DP  RH WIND       PRES   REMARKS
CHATTANOOGA    MOSUNNY   65  59  81 CALM      30.11R
$$

SKY/WX REPORTED AS FAIR MEANS FEW OR NO CLOUDS BELOW
12 THOUSAND FEET.



USA.gov is the U.S. government's official web portal to all federal, state and local government web resources and services.